Location: Newark
(44.2764°N, 5.2753°E)
Time: 20:06:31
(UTC+00:00)

ISS - Pass Details

Date: 22 January 2020
Orbit: 415 x 422 km, 51.6° (Epoch: 23 February)

Event Time Altitude Azimuth Distance (km) Brightness Sun altitude
Rises 18:53:03 0° 251° (WSW) 2,371 1.3 -24.6°
Reaches altitude 10° 18:55:11 10° 257° (WSW) 1,507 0.1 -25.0°
Enters shadow 18:57:18 32° 276° (W) 742 -2.0 -25.4°
